Regional Weather Roundup
Issued by NWS

Home | Current Version | Previous Version | Graphics & Text | Print | Product List | Glossary On
Versions: 1 2 3 4 5 6 7 8 9 10 11 12 13 14 15 16 17 18 19 20 21 22 23 24 25 26 27 28 29 30 31 32 33 34 35 36 37 38 39 40 41 42 43 44 45 46 47 48 49 50
000
ASUS43 KBIS 231702
RWRND

NORTH DAKOTA REGIONAL WEATHER ROUNDUP
NATIONAL WEATHER SERVICE BISMARCK ND
1100 AM CST THU NOV 23 2017

NOTE: "FAIR" INDICATES FEW OR NO CLOUDS BELOW 12,000 FEET WITH NO
SIGNIFICANT WEATHER AND/OR OBSTRUCTIONS TO VISIBILITY.


NDZ001>003-009>011-017-231800-
NORTHWEST NORTH DAKOTA

CITY           SKY/WX    TMP DP  RH WIND       PRES   REMARKS
WILLISTON      CLOUDY    46  39  76 SW10      29.64F
MINOT          PTSUNNY   50  39  66 SW12      29.62F
MINOT AFB      SUNNY     49  39  69 SW5       29.61F
$$

NDZ018>021-031>035-040>046-231800-
SOUTHWEST NORTH DAKOTA

CITY           SKY/WX    TMP DP  RH WIND       PRES   REMARKS
BISMARCK       CLOUDY    43  36  76 CALM      29.74F
DICKINSON      CLOUDY    60  40  47 SW14      29.72F
GARRISON         N/A     43  41  93 S5        29.67F
HETTINGER ARPT SUNNY     57  38  48 SW16      29.81F
$$

NDZ004>008-012>016-024-026-027-054-231800-
NORTHEAST NORTH DAKOTA

CITY           SKY/WX    TMP DP  RH WIND       PRES   REMARKS
GRAND FORKS    CLOUDY    32  31  96 S12       29.79F FOG
GRND FRKS AFB  CLOUDY    31  31  97 S14       29.78F
DEVILS LAKE    SUNNY     28  24  85 SE12      29.71F WCI  18
$$

NDZ022-023-025-028>030-036>039-047>053-231800-
SOUTHEAST NORTH DAKOTA

CITY           SKY/WX    TMP DP  RH WIND       PRES   REMARKS
FARGO          CLOUDY    31  29  92 S10       29.84S
JAMESTOWN      CLOUDY    40  32  73 S10       29.72F
$$





USA.gov is the U.S. government's official web portal to all federal, state and local government web resources and services.